Theta_e
308 309 309 310 309 308 308 309 311 311 311 311 312 312 313 313 311 309 311 313 314 312 314 314 315 312 311 310 310 309 314 317 316 312 312 313 312 313 312 313 311 312 313 311 311 310 306 319 320 316 321 321 320 321
308 308 308 308 308 308 307 308 310 311 310 310 311 311 312 312 311 311 307 311 314 312 315 315 317 319 317 314 312 309 313 315 319 315 311 317 313 310 312 309 312 310 313 314 313 313 319 322 321 322 323 323 323 326
308 308 309 309 308 307 308 308 310 310 310 310 310 311 311 312 311 310 307 309 312 312 313 310 311 315 318 318 319 310 313 316 315 318 318 316 313 311 310 309 308 312 316 316 316 318 319 319 322 324 326 326 327 328
307 308 308 308 309 309 308 308 309 310 310 310 310 310 311 311 310 309 307 309 312 310 306 308 313 313 315 318 317 315 313 314 315 316 315 313 313 311 310 309 310 312 318 317 315 318 320 321 324 326 327 328 327 327
306 306 306 307 308 309 309 307 308 310 310 310 310 310 310 310 309 310 307 310 312 311 306 309 312 311 313 315 313 315 314 313 315 315 314 313 312 311 310 311 310 314 318 316 314 325 324 324 326 328 326 326 327 326
306 306 306 306 307 307 308 308 309 308 309 309 310 310 309 309 309 310 316 314 313 314 308 302 308 311 316 313 313 313 314 314 314 315 313 312 310 313 311 310 316 317 320 321 322 325 323 325 327 328 327 326 326 326
304 305 306 307 307 307 307 308 308 308 308 309 309 309 308 309 308 308 314 314 312 316 309 304 304 313 314 314 315 315 314 315 316 314 313 313 313 314 311 309 316 319 321 320 323 324 321 324 322 325 324 323 322 324
306 305 306 307 307 307 308 308 308 308 308 308 308 308 308 309 308 309 313 311 312 314 314 305 305 308 315 314 313 314 314 315 313 313 312 312 313 313 310 315 318 319 320 322 323 322 324 323 323 322 323 323 322 322
306 307 307 307 307 307 308 308 308 308 308 308 308 308 311 312 316 313 312 315 314 312 306 308 303 306 315 313 314 315 314 311 312 312 312 312 312 309 315 316 318 319 321 319 320 321 321 321 321 321 322 322 321 321
306 307 307 307 307 308 307 308 308 308 307 306 306 309 315 311 309 312 312 311 310 311 311 306 312 309 312 312 313 315 314 312 308 311 316 314 313 319 321 321 321 320 320 321 318 318 320 320 321 321 322 322 322 323
306 306 307 307 307 307 308 308 308 307 305 303 299 300 304 309 312 311 305 306 308 305 307 309 306 306 312 310 312 314 313 312 307 310 310 312 312 318 319 320 322 322 323 323 325 324 324 323 322 322 322 323 324 324
306 306 306 306 307 307 308 308 308 305 303 302 302 304 305 308 308 304 304 306 307 308 311 309 311 308 308 315 314 314 311 311 307 313 311 310 318 319 318 318 320 322 322 322 323 322 323 323 323 323 324 324 325 326
306 306 306 306 307 307 309 309 308 308 306 305 302 302 303 304 296 298 296 303 304 310 313 313 310 310 308 313 313 312 308 308 313 310 309 315 318 317 319 320 321 324 324 323 323 324 324 324 324 323 323 325 326 326
306 307 307 307 307 309 308 308 309 308 304 300 300 289 297 299 301 303 306 304 307 309 309 312 312 311 312 310 313 308 309 310 305 305 308 319 319 318 321 322 322 322 323 323 322 323 322 323 323 323 324 326 326 323
306 307 307 306 307 308 307 307 307 306 302 298 300 291 300 305 306 307 306 306 308 310 309 310 312 311 310 309 309 308 306 304 306 307 315 320 319 320 321 322 323 322 322 322 322 321 321 321 321 321 325 325 325 323
306 306 306 306 306 307 306 307 305 305 302 298 297 298 304 302 303 305 305 304 309 309 311 313 311 309 309 309 306 306 305 303 309 317 319 318 319 322 322 323 323 322 323 322 321 321 321 321 320 322 322 323 322 320
306 302 303 305 306 306 306 305 304 299 298 298 299 304 303 303 303 304 305 306 309 309 311 312 305 305 309 307 306 309 308 313 316 319 318 321 322 324 324 324 322 323 322 321 320 319 319 321 321 320 317 317 318 318
303 304 304 304 306 305 304 305 302 300 296 301 299 303 303 304 304 305 306 308 307 308 310 310 312 306 304 304 306 312 312 318 321 319 319 323 324 325 324 324 323 322 320 319 318 317 317 317 318 318 317 315 315 314
304 305 305 306 305 301 299 302 303 297 299 303 304 304 304 304 306 306 306 308 308 309 311 313 309 307 309 311 313 314 317 319 317 318 321 323 325 322 323 324 323 321 320 317 316 315 314 316 316 316 315 314 312 314
306 306 306 306 305 300 297 300 306 300 298 301 302 301 302 303 305 306 306 307 308 309 309 310 311 314 314 317 319 320 320 321 319 317 318 320 321 322 322 322 321 321 318 316 316 308 313 313 314 314 315 314 314 314
303 304 306 307 303 301 298 298 299 301 301 300 303 302 303 305 303 304 304 308 305 306 308 314 317 320 321 321 320 319 322 322 323 323 320 319 321 322 322 323 322 320 317 315 313 311 308 313 315 316 315 315 315 316
302 305 304 304 298 300 298 301 299 301 298 300 299 301 299 299 300 303 307 304 305 308 310 311 315 318 319 320 322 323 324 322 322 318 313 314 318 320 321 321 321 319 318 316 315 313 315 316 317 317 314 313 308 314
304 303 301 301 296 295 294 301 297 299 296 298 300 298 300 300 303 306 301 304 306 309 311 309 311 313 317 321 320 322 326 324 322 323 321 323 322 323 323 322 323 321 319 317 318 316 316 308 311 314 316 314 312 312
304 299 296 295 296 291 298 296 298 297 299 298 297 295 299 303 306 303 300 304 308 310 310 310 313 315 320 321 321 323 322 325 325 324 324 322 320 321 324 324 323 325 326 321 319 318 318 313 306 313 314 311 310 309
292 292 292 287 297 294 294 295 296 296 295 297 296 297 301 303 300 300 300 305 309 310 310 312 310 312 314 317 321 323 324 323 323 323 322 324 322 319 319 322 323 324 321 316 313 315 311 312 313 309 309 308 307 307
287 293 290 293 294 292 293 292 294 294 295 294 296 301 303 300 297 296 302 308 310 311 312 312 311 309 312 317 316 319 323 326 325 322 321 323 322 322 319 317 316 316 321 320 314 309 308 309 308 306 305 302 298 305
288 291 296 298 297 297 296 298 299 295 292 294 297 298 298 295 295 301 309 312 312 313 314 316 314 311 310 311 313 316 319 322 322 319 321 320 320 321 321 317 314 314 317 314 310 310 309 308 308 309 305 306 308 308
295 295 292 297 296 299 295 297 296 295 297 301 300 291 295 296 298 306 309 314 315 314 314 315 315 312 314 315 315 316 315 316 318 319 319 318 319 319 317 314 313 302 313 313 312 311 311 311 309 308 308 307 307 307
293 298 297 295 297 297 297 298 298 300 303 301 298 298 299 305 308 308 309 312 315 313 309 309 311 314 313 314 315 316 317 318 317 314 308 306 308 309 312 310 311 312 311 307 295 303 310 310 309 309 308 307 306 306
296 301 298 298 296 296 301 303 301 306 306 305 306 305 306 306 307 308 306 306 307 305 306 306 308 310 311 313 313 312 310 310 317 315 309 307 309 310 311 312 312 312 315 311 306 305 296 305 302 307 306 305 305 304
300 300 297 297 296 299 301 304 305 306 306 306 307 303 300 304 307 307 305 304 304 303 302 300 300 300 303 302 307 309 308 307 310 314 314 314 313 315 316 316 314 315 316 313 309 308 307 306 306 305 304 303 302 301
298 297 296 295 298 302 304 303 303 302 302 302 302 305 305 303 299 304 309 307 303 300 298 298 298 298 300 300 300 300 296 302 307 315 316 316 316 316 316 315 315 314 312 309 307 307 306 305 304 304 303 302 301 301
298 298 298 296 297 299 302 302 300 299 300 300 302 303 303 302 298 306 312 309 304 300 299 299 299 299 298 298 300 301 299 299 294 291 293 295 298 305 312 311 310 309 308 306 306 305 305 304 303 302 302 301 300 300
Wind_Speed
14 13 15 14 16 17 17 18 19 20 21 22 22 22 21 21 18 8 3 3 3 3 6 3 3 1 1 1 2 3 3 0 3 1 8 3 3 1 3 1 2 1 4 3 2 2 4 1 3 4 4 6 9 9
12 12 14 14 16 17 18 18 19 19 21 22 22 22 21 20 19 11 3 1 2 4 5 3 7 10 7 6 1 2 2 0 2 3 3 2 3 3 4 1 2 2 2 1 3 3 2 1 2 2 6 10 6 10
14 14 14 13 14 16 17 18 18 19 20 22 22 22 21 18 15 9 3 4 3 3 5 3 5 2 5 12 9 4 2 2 3 1 3 2 4 3 3 4 3 2 2 2 5 1 5 5 4 5 7 9 9 8
14 14 14 15 15 15 18 19 18 19 20 21 22 22 21 18 13 8 3 1 2 1 4 4 2 4 0 5 10 13 1 2 3 1 2 2 0 3 1 1 1 2 6 5 3 2 2 4 4 7 9 10 10 8
14 16 17 18 18 16 16 20 20 19 21 22 22 22 21 18 14 6 4 4 3 3 3 7 13 1 5 6 10 9 11 4 2 1 1 1 1 3 2 0 3 6 7 5 4 11 4 10 10 9 10 9 8 9
14 14 15 17 18 19 20 20 20 22 23 23 23 23 21 17 11 3 3 3 4 2 2 5 4 3 3 1 5 8 8 4 2 2 1 2 1 2 3 4 3 6 5 1 2 10 4 12 9 7 8 9 8 8
15 15 15 16 18 19 19 20 21 22 23 23 24 23 21 13 3 2 3 3 3 1 2 5 5 1 3 1 3 3 2 2 1 2 2 1 2 2 2 4 1 4 5 5 9 14 10 9 7 9 12 11 9 7
14 14 15 16 16 18 19 20 21 23 25 26 25 22 15 3 3 3 2 6 4 2 2 3 5 3 3 1 3 1 3 1 3 2 2 1 3 1 4 4 3 4 7 11 10 1 11 15 14 11 10 9 8 6
16 15 14 15 15 17 19 21 23 24 26 27 23 11 3 2 2 2 11 4 2 3 2 2 3 1 3 1 1 2 1 2 2 3 2 3 3 5 3 5 9 11 7 15 12 15 16 15 13 10 9 6 5 4
16 18 15 15 14 16 19 22 24 25 25 18 3 2 2 2 12 7 3 3 3 2 2 4 1 3 2 0 2 3 0 2 3 2 3 4 3 3 6 5 7 5 15 18 19 12 13 11 10 8 6 5 4 3
15 17 18 18 17 17 19 20 22 23 8 5 6 3 6 12 2 1 2 3 2 3 4 3 5 4 1 2 2 1 3 2 4 4 4 3 3 3 4 6 7 11 12 6 10 12 9 11 9 7 5 4 2 3
15 16 17 18 18 19 18 16 16 8 4 5 5 5 4 3 1 2 2 1 4 3 3 3 1 4 2 2 3 3 2 3 3 5 4 3 2 5 8 10 12 11 11 13 13 13 11 9 7 6 5 4 3 3
15 16 17 17 18 19 15 13 11 11 6 1 2 2 2 1 1 5 5 3 2 1 0 2 3 2 2 3 1 3 5 4 5 4 3 2 4 7 9 10 11 11 13 14 13 10 10 9 6 5 4 3 3 5
14 15 16 16 17 11 13 15 13 7 2 2 3 5 3 3 3 1 1 2 3 2 5 4 3 2 1 3 1 4 3 4 4 5 5 3 9 11 11 11 14 13 12 12 10 9 8 7 6 4 2 4 6 6
12 14 15 11 9 13 14 16 11 1 1 2 0 3 3 2 3 3 3 4 2 3 6 4 3 3 3 3 3 2 4 4 4 5 2 4 12 12 12 12 12 11 9 9 8 7 7 6 6 6 6 5 6 7
12 13 2 5 13 15 17 9 1 0 0 1 2 3 3 3 1 2 2 4 2 4 3 3 3 3 5 3 5 5 4 4 3 3 3 10 13 13 12 10 9 9 9 8 7 7 7 6 6 6 6 5 5 6
10 4 4 11 14 17 9 2 1 2 2 3 3 4 4 4 4 3 3 3 3 4 3 3 4 3 1 3 5 3 3 2 2 4 6 11 15 12 11 10 9 9 9 8 8 7 6 6 6 6 6 5 5 5
4 3 8 10 11 7 2 2 2 2 4 4 4 1 2 3 4 4 3 2 4 4 3 2 3 3 3 4 2 1 2 2 2 5 8 10 12 11 9 11 9 9 9 8 7 7 7 7 7 5 6 5 6 7
6 6 10 10 6 4 3 2 2 3 4 3 4 3 3 4 5 6 5 5 4 4 4 2 4 3 2 0 2 2 2 2 4 6 6 8 10 11 10 10 10 9 9 9 8 6 5 5 5 6 5 6 5 4
9 12 12 10 4 2 3 3 2 3 4 2 3 4 3 4 4 4 6 4 3 3 4 4 3 2 2 3 3 3 3 4 9 10 8 6 6 9 10 9 7 9 8 8 6 5 6 5 4 4 4 5 5 5
3 3 5 4 3 3 3 3 3 3 4 4 3 3 4 3 4 4 4 2 4 3 4 3 3 3 4 3 4 5 5 5 6 5 10 9 7 7 7 6 8 8 7 6 6 7 6 6 5 5 5 6 6 5
1 5 2 2 2 3 4 3 3 3 3 4 4 2 4 3 3 4 2 4 3 3 2 2 2 1 1 3 1 1 6 7 8 8 8 9 6 5 7 7 8 8 7 7 7 7 6 5 4 4 4 3 3 3
5 2 2 3 3 2 4 1 3 3 4 2 3 4 3 3 2 1 4 3 1 2 3 3 5 5 4 4 6 2 5 10 6 6 6 4 5 4 5 7 7 8 8 7 6 5 5 4 4 3 2 3 3 2
3 2 2 2 4 3 2 3 3 3 3 3 3 4 3 3 2 3 4 0 2 3 3 6 6 4 2 3 3 5 5 3 4 4 3 5 6 5 5 5 6 5 4 6 7 6 5 4 4 4 2 2 3 3
2 1 1 3 3 3 4 3 3 3 4 4 3 4 1 2 3 3 3 1 1 2 4 4 4 4 4 4 3 2 4 5 6 5 3 4 5 5 4 2 3 4 5 5 5 6 5 4 6 5 5 4 1 2
2 4 4 2 1 3 3 4 2 4 4 3 4 4 3 3 4 1 1 1 1 2 4 5 5 5 5 3 5 3 2 2 5 5 4 4 5 5 6 6 5 3 4 5 9 10 8 7 8 9 5 5 7 6
2 2 3 3 2 3 4 4 3 3 4 2 2 4 3 4 1 2 2 1 1 2 5 4 2 3 4 5 4 2 1 3 4 7 6 5 5 3 5 7 9 6 7 10 9 9 9 6 5 5 4 3 6 6
3 3 4 1 3 4 4 4 3 4 2 2 2 2 4 4 3 2 2 1 4 5 4 1 2 3 3 2 1 3 6 7 11 12 10 10 8 5 9 9 10 12 8 7 7 4 5 6 6 6 7 8 6 4
4 3 3 5 4 4 4 3 4 3 2 2 2 2 2 1 5 3 3 5 4 1 2 1 1 1 3 3 5 4 3 5 10 15 14 10 6 5 4 6 4 4 4 5 8 4 4 5 7 7 7 6 6 5
3 1 3 4 4 3 1 1 2 3 2 2 2 2 0 3 6 7 8 7 6 6 5 5 4 3 3 5 6 7 7 6 4 6 11 11 9 8 7 8 6 6 6 7 8 10 11 12 10 7 6 5 5 5
3 2 3 3 4 3 3 4 1 1 1 2 2 4 6 3 4 9 9 9 7 7 8 7 8 7 7 6 4 5 6 6 6 5 8 9 11 9 7 7 7 5 5 6 8 8 8 8 7 8 9 9 8 6
3 3 3 3 3 3 3 3 3 4 4 4 4 2 1 1 4 2 4 4 6 6 8 8 9 7 7 4 6 5 6 2 2 5 13 10 9 9 8 6 5 5 6 9 9 9 10 10 8 9 8 8 7 7
3 2 3 3 2 3 2 3 4 1 1 2 6 4 4 4 6 3 2 5 5 5 5 5 4 4 4 4 5 7 8 8 10 13 15 14 13 10 7 6 7 9 12 11 10 11 11 12 9 9 8 7 6 5
Wind_Direction
335 337 337 340 338 339 339 337 337 338 339 342 343 345 347 350 355 354 294 225 314 299 277 230 268 268 129 29 90 326 1 343 56 316 303 172 254 52 315 343 337 210 160 152 151 150 193 127 163 238 84 123 132 133
328 329 329 330 331 334 335 334 333 334 335 338 339 341 343 345 349 354 282 1 316 242 291 295 264 270 261 249 45 156 283 123 221 129 227 200 175 201 185 159 93 260 322 185 234 67 321 340 327 135 153 135 138 135
340 334 329 323 328 331 332 330 328 331 331 333 333 334 336 338 341 347 289 306 248 277 276 278 241 139 213 229 230 243 209 202 210 137 202 105 205 159 216 190 123 145 244 118 192 126 81 124 144 137 134 124 139 139
343 340 337 335 329 323 332 332 326 325 326 326 327 327 328 329 329 324 272 318 272 298 290 286 344 265 233 202 207 215 28 109 97 236 194 123 136 227 202 92 76 101 166 145 87 175 166 186 170 140 122 126 128 130
343 341 336 335 334 333 328 332 331 326 324 324 322 320 321 323 320 294 239 242 264 297 297 292 309 346 258 222 223 212 213 240 269 229 135 177 140 167 75 12 212 186 169 200 233 184 162 173 164 157 145 148 142 136
329 327 332 332 332 332 332 331 331 326 324 321 317 315 315 317 317 246 213 165 209 225 273 290 328 295 328 73 165 185 187 168 236 220 156 139 52 263 195 214 253 182 190 157 79 146 92 129 133 145 137 132 122 119
329 325 322 323 327 326 328 325 322 320 319 316 314 313 310 304 225 242 360 41 169 262 251 290 291 308 308 229 99 128 115 132 229 115 194 142 146 216 210 223 218 188 204 176 141 124 111 142 137 131 125 117 108 100
325 326 324 321 320 324 322 321 320 318 317 315 314 311 311 103 185 202 128 35 164 221 233 272 271 288 1 181 143 358 133 157 47 97 129 194 140 246 242 227 187 157 136 137 146 86 123 120 121 119 122 131 121 101
323 327 323 325 319 322 322 321 321 319 316 315 312 310 153 222 183 87 323 315 209 278 273 232 272 313 352 70 50 119 328 151 55 203 181 192 163 224 221 208 183 167 171 142 120 117 125 128 130 131 129 120 113 92
326 326 328 328 331 327 327 326 325 322 317 316 330 248 166 69 316 292 152 193 185 194 228 252 294 265 302 310 142 150 284 123 191 133 143 224 235 288 256 226 168 153 139 136 120 125 133 132 138 138 121 101 79 54
323 326 329 336 337 331 330 330 332 333 346 20 7 343 326 312 228 189 208 228 158 230 193 242 229 279 147 255 197 319 146 145 212 147 228 189 239 209 163 163 143 142 143 117 124 129 137 139 140 134 125 108 103 126
320 321 322 326 329 329 329 327 341 360 353 301 292 291 288 290 85 225 218 204 223 256 180 227 244 219 260 286 230 166 184 187 222 142 207 225 209 133 141 140 137 133 125 117 121 119 118 116 122 124 121 115 115 93
314 314 315 320 323 324 325 333 338 323 313 231 233 286 350 133 117 213 198 192 244 228 243 346 278 240 197 219 192 193 192 188 137 191 218 242 131 144 141 138 128 126 120 115 114 115 120 117 103 94 118 124 123 111
310 305 304 312 315 322 335 338 339 340 329 350 6 323 220 186 246 236 301 348 351 306 327 313 261 245 169 198 184 207 110 157 182 198 210 168 168 154 149 143 136 134 129 128 125 122 114 110 100 84 115 138 137 125
306 299 303 301 319 330 333 330 333 324 321 294 249 237 233 332 269 299 309 293 299 291 338 280 239 249 181 232 214 126 173 210 212 195 190 147 153 153 148 148 142 139 134 128 129 127 127 133 127 122 104 117 123 128
312 308 273 325 328 327 324 322 344 239 211 252 242 258 233 262 313 319 349 318 325 310 290 232 259 231 222 209 186 207 173 183 178 202 140 146 149 153 153 151 139 135 137 136 138 139 138 140 142 127 114 106 115 128
309 239 305 328 325 318 312 259 251 252 268 248 240 235 270 273 269 287 315 298 325 302 325 288 239 240 20 209 190 202 202 177 167 150 154 155 154 153 147 141 140 142 140 139 135 136 135 138 148 151 134 119 120 120
244 266 295 316 328 306 273 231 251 250 251 247 255 282 219 256 284 286 267 296 321 328 291 300 318 251 244 198 191 214 174 87 95 143 150 147 143 145 147 144 146 145 142 141 142 140 145 155 164 153 140 135 129 126
264 269 288 301 315 297 302 224 238 268 253 272 267 250 259 269 263 268 272 271 252 265 286 250 251 246 230 193 282 61 235 176 158 144 135 141 139 145 143 141 143 147 147 146 151 156 153 161 148 152 147 161 155 153
283 281 278 279 240 268 272 246 209 260 267 342 267 258 260 262 284 276 277 273 254 223 223 222 247 283 269 327 347 4 264 157 151 143 141 148 157 146 152 154 155 148 143 141 141 144 148 153 160 163 172 184 191 197
311 274 280 181 192 239 273 290 257 276 316 278 301 279 270 245 249 249 260 196 224 225 231 217 236 251 243 229 258 249 152 144 171 159 159 157 159 160 152 152 150 157 157 159 158 157 177 176 170 184 192 213 223 237
280 341 275 165 229 220 245 226 271 308 269 282 283 248 261 259 248 221 201 215 238 253 247 282 279 239 319 285 19 73 132 141 107 104 92 116 136 158 172 164 166 174 174 171 172 174 183 185 187 196 203 193 203 205
311 214 242 207 245 225 268 193 256 227 259 265 271 254 232 242 235 295 242 226 288 15 333 315 327 329 313 259 118 113 219 130 128 134 136 132 113 157 191 176 183 179 177 177 177 177 184 167 175 218 215 215 220 210
265 261 293 241 209 268 263 235 214 248 248 247 236 260 239 241 301 228 244 147 19 320 344 355 334 310 259 190 186 182 185 176 150 130 152 153 127 180 205 182 183 180 183 166 174 180 179 167 164 190 218 223 221 226
268 225 156 281 231 253 255 257 227 243 251 215 240 252 244 297 246 235 242 111 3 8 357 354 351 341 294 298 289 198 192 193 182 140 132 134 125 120 115 136 163 172 162 153 152 162 141 127 104 85 48 7 358 137
239 207 199 279 254 227 235 245 246 354 326 329 305 310 335 282 254 275 309 40 331 26 356 343 340 325 314 293 301 308 219 168 145 142 138 169 175 150 154 153 142 113 189 200 140 122 109 107 99 91 100 141 151 142
289 251 219 230 258 282 275 249 224 200 235 240 292 312 258 259 261 228 359 357 315 345 319 294 293 277 303 306 294 301 106 114 81 87 89 85 74 106 162 150 133 114 114 108 104 116 125 139 147 128 125 131 138 143
281 260 249 249 243 224 262 282 218 223 248 269 185 244 298 330 304 340 278 287 291 293 270 327 289 267 285 304 147 128 117 122 118 108 93 68 64 82 102 106 116 116 121 132 157 143 138 139 127 144 146 134 124 85
255 242 251 275 248 222 232 279 34 309 293 269 275 281 302 251 337 299 292 288 301 84 76 24 20 117 78 77 77 71 119 156 156 131 111 107 109 90 94 111 117 108 111 121 54 80 123 124 131 123 106 97 92 80
262 216 271 275 284 284 338 173 209 260 220 264 286 294 297 54 6 4 17 17 35 36 34 35 24 66 92 107 94 63 37 16 0 120 137 138 148 141 149 144 147 133 122 113 109 111 114 109 108 106 104 98 90 84
314 282 267 251 272 276 330 328 273 216 284 320 340 37 39 38 3 17 22 18 24 34 45 43 47 35 43 35 40 72 71 27 8 85 95 121 147 155 144 141 144 137 125 106 128 124 120 109 106 104 100 95 84 69
291 275 315 294 294 353 320 7 348 24 6 350 30 97 199 66 68 48 344 345 2 12 6 10 25 15 360 11 40 51 50 41 44 138 135 135 130 128 131 129 126 119 113 120 117 114 111 108 108 107 103 93 78 68
286 278 258 271 282 307 329 360 35 339 307 24 69 72 36 48 61 358 344 21 47 66 70 66 59 41 37 38 74 82 80 72 64 64 71 75 89 101 106 103 107 111 110 104 104 105 103 107 103 97 88 81 81 85